BEIDOU-2 IGSO-2

Last updated on Sat Nov 15 2025 00:02:48 GMT+0000 (Coordinated Universal Time)

1 37256U 10068A 25318.82455720 -.00000229 00000+0 00000+0 0 9992 2 37256 47.9394 274.4930 0049950 216.7384 325.7500 1.00295673 54642
UTC large
Height (km)
Speed (km/s)
/
Latitude / Longitude
Inclination (degrees)
Orbital Period (minutes)
Azimuth
Elevation
Range (km)
Doppler Factor

Next 0 passes for location: London (51.5072 / 0.1276)

Sorry there are no passes over London.